Regional Weather Roundup
Issued by NWS

Home | Current Version | Previous Version | Text Only | Print | Product List | Glossary Off
Versions: 1 2 3 4 5 6 7 8 9 10 11 12 13 14 15 16 17 18 19 20 21 22 23 24 25 26 27 28 29 30 31 32 33 34 35 36 37 38 39 40 41 42 43 44 45 46 47 48 49 50

000
ASUS45 KABQ 280910
RWRNM
NEW MEXICO REGIONAL WEATHER ROUNDUP
NATIONAL WEATHER SERVICE ALBUQUERQUE NM
300 AM MDT TUE MAR 28 2017

NOTE: "FAIR" MEANS FEW OR NO CLOUDS BELOW 12,000 FEET AGL WITH NO
       SIGNIFICANT WEATHER OR OBSTRUCTIONS TO VISION.

      THIS PRODUCT IS RELEASED AS TWO VERSIONS.  ONE VERSION NEAR
      THE TOP OF THE HOUR CONTAINING PRELIMINARY DATA FROM ALBUQUERQUE
      AND OTHER STATIONS.  A FINAL VERSION WITH ADDITIONAL DATA IS
      ISSUED ABOUT 10 MINUTES AFTER THE HOUR.

NMZ501-503-504-510>518-281000-
NORTHWEST PLATEAU/NORTHCENTRAL MOUNTAINS

CITY           SKY/WX    TMP DP  RH WIND       PRES   REMARKS
FARMINGTON     CLOUDY    41  37  86 NW3       29.85S
LOS ALAMOS     MOCLDY    40  35  79 SE6       29.88S
SANTA FE       FAIR      40  39  97 NW6       29.85S
TAOS             N/A     34  28  80 N8        29.86F WCI  27
ANGEL FIRE     MOCLDY    32  31  96 S3        29.90F

$$
NMZ402-403-502-505>509-281000-
WESTCENTRAL MOUNTAINS/SOUTHWEST MOUNTAINS

CITY           SKY/WX    TMP DP  RH WIND       PRES   REMARKS
GALLUP         RAIN      36  34  92 S7        29.91S WCI  30
GRANTS         CLOUDY    37  32  81 NW5       29.90R WCI  34
SILVER CITY    CLOUDY    51  32  48 W8        29.84S

$$
NMZ407-409-411-412-281000-
SOUTHERN DESERTS

CITY           SKY/WX    TMP DP  RH WIND       PRES   REMARKS
DEMING         MOCLDY    59  31  34 W15       29.80F
LAS CRUCES     MOCLDY    59  28  31 W8        29.80F
HOLLOMAN AFB   FAIR      64  35  34 CALM      29.82F
ALAMOGORDO     CLOUDY    64  32  29 W15G24    29.80F
T OR C         MOCLDY    55  30  38 NW8       29.78F

$$
NMZ519>523-281000-
CENTRAL VALLEYS/CENTRAL HIGHLANDS

CITY           SKY/WX    TMP DP  RH WIND       PRES   REMARKS
ALBUQUERQUE    MOCLDY    50  37  61 CALM      29.82F
MORIARTY ARPT  LGT RAIN  49  39  68 SE12G17   29.88S
CLINES CORNERS RAIN      42  36  79 W10       29.92S
BELEN          CLOUDY    47  35  63 CALM      29.81F
SOCORRO        FAIR      49  33  54 NW9       29.80F

$$
NMZ524>526-539-540-281000-
SOUTHCENTRAL MOUNTAINS

CITY           SKY/WX    TMP DP  RH WIND       PRES   REMARKS
RUIDOSO        MOCLDY    46  32  57 W15       29.91F

$$
NMZ527>531-281000-
NORTHEAST HIGHLANDS/NORTHEAST PLAINS

CITY           SKY/WX    TMP DP  RH WIND       PRES   REMARKS
LAS VEGAS      LGT RAIN  44  36  73 S14       29.88S
RATON          CLOUDY    46  37  71 CALM      29.82F
CLAYTON        FAIR      50  42  74 SE23      29.83F

$$
NMZ532>537-281000-
EASTCENTRAL PLAINS

CITY           SKY/WX    TMP DP  RH WIND       PRES   REMARKS
TUCUMCARI      MOCLDY    64  33  31 S20G29    29.80R
CANNON AFB     CLOUDY    52  40  63 E8        29.82F
CLOVIS AIRPORT FAIR      48  37  66 NE6       29.83F

$$
NMZ028-029-538-281000-
SOUTHEAST PLAINS

CITY           SKY/WX    TMP DP  RH WIND       PRES   REMARKS
ROSWELL        FAIR      61  27  27 NW13        N/A
ARTESIA        FAIR      59  28  31 S7        29.73F
CARLSBAD       FAIR      58  28  32 SE8       29.72F
HOBBS          FAIR      54  36  50 E5        29.77F


$$



USA.gov is the U.S. government's official web portal to all federal, state and local government web resources and services.